• In Germany
  • List of Countries
  • For 7 days
  • Water Temperature
  • Satellite Maps
  • Weather Map
  • Weather Widgets
  • user-avatar
    Login

    Hourly Weather Cyklady

    Today, 16 December, Saturday

    Time Temperature Precipitation Wind Pressure Humidity
    00:00 +8°C° 0 mm 3 mps 682 mmHg 93%
    01:00 +7°C° 0 mm 4 mps 682 mmHg 94%
    02:00 +8°C° 0 mm 3 mps 682 mmHg 94%
    03:00 +8°C° 0 mm 3 mps 682 mmHg 95%
    04:00 +8°C° 0 mm 3 mps 682 mmHg 95%
    05:00 +7°C° 0 mm 3 mps 681 mmHg 95%
    06:00 +7°C° 0 mm 3 mps 681 mmHg 95%
    07:00 +7°C° 0 mm 3 mps 681 mmHg 95%
    08:00 +9°C° 0 mm 3 mps 681 mmHg 89%
    09:00 +10°C° 0 mm 4 mps 681 mmHg 84%
    10:00 +11°C° 0 mm 4 mps 682 mmHg 78%
    11:00 +10°C° 0.5 mm 5 mps 681 mmHg 77%
    12:00 +11°C° 0.5 mm 6 mps 681 mmHg 76%
    13:00 +11°C° 0.5 mm 7 mps 681 mmHg 74%
    14:00 +10°C° 2.4 mm 6 mps 681 mmHg 81%
    15:00 +9°C° 2.4 mm 5 mps 680 mmHg 87%
    16:00 +8°C° 2.4 mm 4 mps 680 mmHg 93%
    17:00 +8°C° 0.7 mm 4 mps 680 mmHg 93%
    18:00 +8°C° 0.7 mm 4 mps 680 mmHg 94%
    19:00 +8°C° 0.7 mm 4 mps 680 mmHg 94%
    20:00 +8°C° 0.4 mm 5 mps 680 mmHg 94%
    21:00 +8°C° 0.4 mm 5 mps 680 mmHg 93%
    22:00 +8°C° 0.4 mm 5 mps 680 mmHg 93%
    23:00 +8°C° 0.5 mm 5 mps 680 mmHg 93%

    Tomorrow, 17 December, Sunday

    Time Temperature Precipitation Wind Pressure Humidity
    00:00 +8°C° 0.5 mm 4 mps 679 mmHg 93%
    01:00 +8°C° 0.5 mm 4 mps 679 mmHg 93%
    02:00 +8°C° 0.5 mm 4 mps 679 mmHg 94%
    03:00 +9°C° 0.5 mm 3 mps 679 mmHg 95%
    04:00 +9°C° 0.5 mm 3 mps 679 mmHg 96%
    05:00 +8°C° 0.2 mm 3 mps 679 mmHg 96%
    06:00 +8°C° 0.2 mm 3 mps 679 mmHg 96%
    07:00 +8°C° 0.2 mm 3 mps 679 mmHg 96%
    08:00 +9°C° 0.2 mm 3 mps 680 mmHg 91%
    09:00 +9°C° 0.2 mm 3 mps 681 mmHg 86%
    10:00 +10°C° 0.2 mm 3 mps 681 mmHg 81%
    11:00 +10°C° 0.1 mm 3 mps 681 mmHg 79%
    12:00 +10°C° 0.1 mm 4 mps 681 mmHg 76%
    13:00 +8°C° 0.1 mm 4 mps 681 mmHg 74%
    14:00 +8°C° 0.1 mm 4 mps 681 mmHg 77%
    15:00 +7°C° 0.1 mm 4 mps 681 mmHg 79%
    16:00 +7°C° 0.1 mm 3 mps 681 mmHg 82%
    17:00 +5°C° 0 mm 3 mps 682 mmHg 84%
    18:00 +4°C° 0 mm 3 mps 682 mmHg 86%
    19:00 +4°C° 0 mm 3 mps 682 mmHg 88%
    20:00 +3°C° 0 mm 3 mps 683 mmHg 88%
    21:00 +4°C° 0 mm 2 mps 683 mmHg 89%
    22:00 +3°C° 0 mm 2 mps 683 mmHg 89%
    23:00 +3°C° 0 mm 2 mps 683 mmHg 90%

    Day after tomorrow, 18 December, Monday

    Time Temperature Precipitation Wind Pressure Humidity
    00:00 +3°C° 0 mm 2 mps 683 mmHg 90%
    01:00 +3°C° 0 mm 2 mps 683 mmHg 91%
    02:00 +2°C° 0.1 mm 2 mps 683 mmHg 90%
    03:00 +2°C° 0.1 mm 2 mps 683 mmHg 90%
    04:00 +2°C° 0.1 mm 2 mps 683 mmHg 89%
    05:00 +2°C° 0.1 mm 2 mps 683 mmHg 88%
    06:00 +2°C° 0.1 mm 2 mps 683 mmHg 88%
    07:00 +2°C° 0.1 mm 2 mps 683 mmHg 87%
    08:00 +4°C° 0.2 mm 2 mps 684 mmHg 81%
    09:00 +6°C° 0.2 mm 1 mps 684 mmHg 75%
    10:00 +7°C° 0.2 mm 1 mps 684 mmHg 70%
    11:00 +7°C° 0.2 mm 1 mps 684 mmHg 69%
    12:00 +7°C° 0.2 mm 1 mps 684 mmHg 69%
    13:00 +7°C° 0.2 mm 2 mps 683 mmHg 69%
    14:00 +6°C° 0.3 mm 2 mps 683 mmHg 73%
    15:00 +4°C° 0.3 mm 3 mps 683 mmHg 77%
    16:00 +3°C° 0.3 mm 3 mps 683 mmHg 81%
    17:00 +3°C° 0.1 mm 3 mps 683 mmHg 84%
    18:00 +2°C° 0.1 mm 3 mps 683 mmHg 86%
    19:00 +1°C° 0.1 mm 3 mps 684 mmHg 89%
    20:00 +1°C° 0 mm 3 mps 684 mmHg 89%
    21:00 0°C° 0 mm 3 mps 684 mmHg 89%
    22:00 0°C° 0 mm 3 mps 684 mmHg 90%
    23:00 -1°C° 0 mm 3 mps 684 mmHg 89%

    19 December, Tuesday

    Time Temperature Precipitation Wind Pressure Humidity
    00:00 -1°C° 0 mm 3 mps 685 mmHg 89%
    01:00 -1°C° 0 mm 3 mps 685 mmHg 89%
    02:00 -2°C° 0 mm 2 mps 685 mmHg 89%
    03:00 -2°C° 0 mm 2 mps 685 mmHg 88%
    04:00 -2°C° 0 mm 2 mps 685 mmHg 88%
    05:00 -2°C° 0 mm 2 mps 685 mmHg 87%
    06:00 -2°C° 0 mm 2 mps 686 mmHg 86%
    07:00 -2°C° 0 mm 2 mps 686 mmHg 86%
    08:00 +1°C° 0 mm 2 mps 687 mmHg 78%
    09:00 +2°C° 0 mm 2 mps 688 mmHg 70%
    10:00 +4°C° 0 mm 2 mps 688 mmHg 62%
    11:00 +5°C° 0 mm 2 mps 688 mmHg 59%
    12:00 +5°C° 0 mm 2 mps 688 mmHg 57%
    13:00 +5°C° 0 mm 2 mps 688 mmHg 54%
    14:00 +4°C° 0 mm 2 mps 688 mmHg 58%
    15:00 +3°C° 0 mm 2 mps 688 mmHg 63%
    16:00 +3°C° 0 mm 2 mps 687 mmHg 67%
    17:00 +2°C° 0 mm 2 mps 687 mmHg 71%
    18:00 +1°C° 0 mm 2 mps 688 mmHg 75%
    19:00 -1°C° 0 mm 2 mps 688 mmHg 79%
    20:00 -1°C° 0 mm 2 mps 688 mmHg 81%
    21:00 -1°C° 0 mm 2 mps 688 mmHg 82%
    22:00 -2°C° 0 mm 2 mps 688 mmHg 84%
    23:00 -2°C° 0 mm 2 mps 688 mmHg 85%

    20 December, Wednesday

    Time Temperature Precipitation Wind Pressure Humidity
    00:00 -2°C° 0 mm 2 mps 688 mmHg 86%
    01:00 -2°C° 0 mm 2 mps 688 mmHg 87%
    02:00 -2°C° 0 mm 2 mps 688 mmHg 87%
    03:00 -2°C° 0 mm 2 mps 688 mmHg 87%
    04:00 -2°C° 0 mm 2 mps 688 mmHg 87%
    05:00 -2°C° 0 mm 2 mps 688 mmHg 87%
    06:00 -2°C° 0 mm 2 mps 688 mmHg 87%
    07:00 -2°C° 0 mm 2 mps 688 mmHg 88%
    08:00 -1°C° 0 mm 2 mps 689 mmHg 78%
    09:00 +2°C° 0 mm 2 mps 690 mmHg 69%
    10:00 +4°C° 0 mm 2 mps 690 mmHg 60%
    11:00 +4°C° 0 mm 2 mps 690 mmHg 58%
    12:00 +5°C° 0 mm 2 mps 690 mmHg 56%
    13:00 +5°C° 0 mm 2 mps 690 mmHg 54%
    14:00 +4°C° 0 mm 2 mps 690 mmHg 59%
    15:00 +3°C° 0 mm 2 mps 690 mmHg 64%
    16:00 +2°C° 0 mm 2 mps 690 mmHg 69%
    17:00 +1°C° 0 mm 2 mps 690 mmHg 73%
    18:00 -1°C° 0 mm 2 mps 690 mmHg 78%
    19:00 -2°C° 0 mm 2 mps 690 mmHg 83%
    20:00 -2°C° 0 mm 2 mps 690 mmHg 84%
    21:00 -2°C° 0 mm 2 mps 691 mmHg 85%
    22:00 -2°C° 0 mm 2 mps 691 mmHg 86%
    23:00 -3°C° 0 mm 2 mps 691 mmHg 86%

    21 December, Thursday

    Time Temperature Precipitation Wind Pressure Humidity
    00:00 -3°C° 0 mm 2 mps 691 mmHg 86%
    01:00 -3°C° 0 mm 2 mps 690 mmHg 86%
    02:00 -3°C° 0 mm 2 mps 690 mmHg 84%
    03:00 -3°C° 0 mm 2 mps 690 mmHg 83%
    04:00 -3°C° 0 mm 2 mps 690 mmHg 81%
    05:00 -4°C° 0 mm 2 mps 690 mmHg 78%
    06:00 -4°C° 0 mm 2 mps 691 mmHg 75%
    07:00 -4°C° 0 mm 2 mps 691 mmHg 72%
    08:00 -1°C° 0 mm 2 mps 691 mmHg 62%
    09:00 +2°C° 0 mm 2 mps 692 mmHg 51%
    10:00 +4°C° 0 mm 2 mps 692 mmHg 40%
    11:00 +4°C° 0 mm 2 mps 692 mmHg 39%
    12:00 +5°C° 0 mm 2 mps 692 mmHg 37%
    13:00 +6°C° 0 mm 2 mps 692 mmHg 36%
    14:00 +4°C° 0 mm 2 mps 691 mmHg 42%
    15:00 +3°C° 0 mm 2 mps 691 mmHg 48%
    16:00 +2°C° 0 mm 2 mps 691 mmHg 55%
    17:00 +1°C° 0 mm 2 mps 691 mmHg 56%
    18:00 -1°C° 0 mm 2 mps 691 mmHg 58%
    19:00 -1°C° 0 mm 2 mps 691 mmHg 59%
    20:00 -1°C° 0 mm 2 mps 691 mmHg 57%
    21:00 -1°C° 0 mm 2 mps 691 mmHg 55%
    22:00 -1°C° 0 mm 2 mps 690 mmHg 53%
    23:00 -1°C° 0 mm 2 mps 690 mmHg 50%
    Show more